Weather Roundup
Issued by NWS Springfield, MO

Home | Current Version | Previous Version | Text Only | Print | Product List | Glossary On
Versions: 1 2 3 4 5 6 7 8 9 10 11 12 13 14 15 16 17 18 19 20 21 22 23 24 25 26 27 28 29 30 31 32 33 34 35 36 37 38 39 40 41 42 43 44 45 46 47 48 49 50
000
NZUS99 KSGF 280559
HRRSGF

HOURLY WEATHER
NATIONAL WEATHER SERVICE SPRINGFIELD MO
1200 AM CST FRI NOV 28 2014

......SGF CWA......

CITY           SKY/WX    TMP DP  RH WIND       PRES   REMARKS
SPRINGFIELD    CLEAR     33  22  63 S13       30.29F WCI  24
6HR MIN TEMP:  30; 6HR MAX TEMP:  37;

JOPLIN         CLEAR     33  22  63 S9        30.28F WCI  25
6HR MIN TEMP:  31; 6HR MAX TEMP:  38;

WEST PLAINS    CLEAR     31  20  63 SE5       30.35F WCI  26
6HR MIN TEMP:  27; 6HR MAX TEMP:  34;

ROLLA          PTCLDY    29  22  75 SE10      30.32F WCI  20
6HR MIN TEMP:  27; 6HR MAX TEMP:  30;

OSAGE BEACH    CLEAR     30  21  69 SE3       30.33F

......SURROUNDING SGF CWA......

CITY           SKY/WX    TMP DP  RH WIND       PRES   REMARKS
CHANUTE        CLEAR     30  24  78 SE8       30.23F WCI  22
PARSONS        CLEAR     35  25  66 SE5       30.26F WCI  31
COFFEYVILLE    CLEAR     33  25  72 S8        30.25F WCI  26
EMPORIA        CLEAR     31  22  69 SE12      30.18F WCI  22
SILOAM SPRINGS CLEAR     37  21  52 S8        30.30F WCI  31
HARRISON AR    CLEAR     31  25  78 SE7       30.32F WCI  24
NEAR YELLVILLE CLEAR     28  21  74 CALM      30.36S

......KANSAS AND MISSOURI......

CITY           SKY/WX    TMP DP  RH WIND       PRES   REMARKS
KANSAS CTY INT CLEAR     31  23  72 SE15      30.22F WCI  20
DOWNTOWN KC    CLEAR     32  23  69 S8        30.24F WCI  25
COLUMBIA       MOCLDY    30  24  78 SE7       30.33F WCI  23
SEDALIA        CLEAR     29  24  82 SE7       30.32F WCI  22
ST JOSEPH      CLEAR     28  22  78 SE7       30.23F WCI  21
ST LOUIS       CLOUDY    26  19  74 E10       30.42F WCI  16
SPIRIT OF STL  MOCLDY    28  19  69 SE6       30.40F WCI  22
KIRKSVILLE     MOCLDY    20  15  81 SE10      30.32F WCI   9
WICHITA        CLEAR     37  23  56 S14       30.14F WCI  28
TOPEKA         CLEAR     30  21  69 E6        30.21F WCI  24
OLATHE         CLEAR     30  22  72 SE10      30.23F WCI  21

......TENNESSEE......

CITY           SKY/WX    TMP DP  RH WIND       PRES   REMARKS
MEMPHIS        PTCLDY    34  26  72 SE3       30.45F
NASHVILLE      CLEAR     27  20  75 N5        30.46F WCI  22

......ARKANSAS.......

CITY           SKY/WX    TMP DP  RH WIND       PRES   REMARKS
FAYETTEVILLE   CLEAR     34  25  69 S6        30.31F WCI  29
FT SMITH       CLEAR     34  28  79 NE5       30.35F WCI  30
LITTLE ROCK    PTCLDY    34  27  75 CALM      30.44F

......OKLAHOMA.......

CITY           SKY/WX    TMP DP  RH WIND       PRES   REMARKS
TULSA          PTCLDY    40  26  57 S10       30.27F WCI  33
PONCA CITY     CLEAR     41  22  46 S7        30.21F
MCALESTER      PTCLDY    44  26  49 S7        30.32F
OKLAHOMA CITY  PTCLDY    40  25  55 S15       30.23F WCI  32

......IOWA............

CITY           SKY/WX    TMP DP  RH WIND       PRES   REMARKS
DES MOINES     MOCLDY    14   5  67 SE10      30.27F WCI   1
QUAD CITIES    CLOUDY    13   6  74 CALM      30.39F

......ILLINOIS........

CITY           SKY/WX    TMP DP  RH WIND       PRES   REMARKS
QUINCY         MOCLDY    19   9  65 E8        30.38F WCI   9
CHICAGO        PTCLDY    18  11  74 CALM      30.36F



USA.gov is the U.S. government's official web portal to all federal, state and local government web resources and services.